• In Switzerland
  • List of Countries
  • For 7 days
  • Water Temperature
  • Satellite Maps
  • Weather Map
  • Weather Widgets
  • user-avatar
    Login

    Hourly Weather Serdyuky

    Today, 23 April, Monday

    Time Temperature Precipitation Wind Pressure Humidity
    00:00 +9°C° 0 mm 3 mps 746 mmHg 71%
    01:00 +8°C° 0 mm 3 mps 746 mmHg 74%
    02:00 +7°C° 0 mm 3 mps 746 mmHg 76%
    03:00 +7°C° 0 mm 3 mps 746 mmHg 78%
    04:00 +5°C° 0 mm 3 mps 747 mmHg 80%
    05:00 +5°C° 0 mm 3 mps 747 mmHg 81%
    06:00 +7°C° 0 mm 3 mps 747 mmHg 75%
    07:00 +7°C° 0 mm 4 mps 748 mmHg 68%
    08:00 +10°C° 0 mm 4 mps 748 mmHg 62%
    09:00 +11°C° 0 mm 4 mps 748 mmHg 58%
    10:00 +11°C° 0 mm 4 mps 749 mmHg 53%
    11:00 +12°C° 0 mm 4 mps 749 mmHg 49%
    12:00 +12°C° 0 mm 4 mps 749 mmHg 48%
    13:00 +13°C° 0 mm 4 mps 749 mmHg 46%
    14:00 +13°C° 0 mm 4 mps 749 mmHg 45%
    15:00 +13°C° 0 mm 4 mps 749 mmHg 45%
    16:00 +12°C° 0 mm 4 mps 749 mmHg 46%
    17:00 +12°C° 0 mm 3 mps 750 mmHg 47%
    18:00 +11°C° 0 mm 3 mps 750 mmHg 50%
    19:00 +10°C° 0 mm 2 mps 750 mmHg 53%
    20:00 +10°C° 0 mm 1 mps 750 mmHg 56%
    21:00 +8°C° 0 mm 2 mps 751 mmHg 58%
    22:00 +7°C° 0 mm 2 mps 751 mmHg 59%
    23:00 +6°C° 0 mm 2 mps 751 mmHg 61%

    Tomorrow, 24 April, Tuesday

    Time Temperature Precipitation Wind Pressure Humidity
    00:00 +6°C° 0 mm 2 mps 751 mmHg 63%
    01:00 +6°C° 0 mm 2 mps 751 mmHg 64%
    02:00 +4°C° 0 mm 3 mps 751 mmHg 66%
    03:00 +4°C° 0 mm 3 mps 751 mmHg 67%
    04:00 +4°C° 0 mm 3 mps 751 mmHg 69%
    05:00 +4°C° 0 mm 3 mps 751 mmHg 71%
    06:00 +7°C° 0 mm 3 mps 751 mmHg 66%
    07:00 +8°C° 0 mm 4 mps 751 mmHg 62%
    08:00 +10°C° 0 mm 5 mps 751 mmHg 57%
    09:00 +13°C° 0 mm 5 mps 750 mmHg 55%
    10:00 +14°C° 0 mm 5 mps 750 mmHg 53%
    11:00 +16°C° 0 mm 6 mps 749 mmHg 50%
    12:00 +15°C° 1.2 mm 5 mps 749 mmHg 59%
    13:00 +14°C° 1.2 mm 4 mps 748 mmHg 67%
    14:00 +13°C° 1.2 mm 3 mps 748 mmHg 76%
    15:00 +13°C° 1.5 mm 3 mps 747 mmHg 79%
    16:00 +12°C° 1.5 mm 4 mps 747 mmHg 83%
    17:00 +12°C° 1.5 mm 4 mps 746 mmHg 86%
    18:00 +12°C° 0 mm 4 mps 746 mmHg 88%
    19:00 +12°C° 0 mm 3 mps 746 mmHg 89%
    20:00 +12°C° 0 mm 3 mps 746 mmHg 91%
    21:00 +12°C° 0.1 mm 3 mps 746 mmHg 92%
    22:00 +11°C° 0.1 mm 3 mps 746 mmHg 94%
    23:00 +11°C° 0.1 mm 3 mps 746 mmHg 95%

    Day after tomorrow, 25 April, Wednesday

    Time Temperature Precipitation Wind Pressure Humidity
    00:00 +10°C° 0 mm 3 mps 746 mmHg 95%
    01:00 +10°C° 0 mm 3 mps 747 mmHg 95%
    02:00 +9°C° 0 mm 3 mps 747 mmHg 95%
    03:00 +9°C° 0 mm 3 mps 747 mmHg 95%
    04:00 +9°C° 0 mm 3 mps 748 mmHg 94%
    05:00 +8°C° 0 mm 3 mps 748 mmHg 94%
    06:00 +10°C° 0 mm 3 mps 748 mmHg 87%
    07:00 +12°C° 0 mm 3 mps 749 mmHg 79%
    08:00 +13°C° 0 mm 3 mps 749 mmHg 72%
    09:00 +15°C° 0 mm 4 mps 749 mmHg 66%
    10:00 +17°C° 0 mm 4 mps 749 mmHg 60%
    11:00 +18°C° 0 mm 4 mps 749 mmHg 54%
    12:00 +19°C° 0 mm 5 mps 749 mmHg 53%
    13:00 +20°C° 0 mm 5 mps 749 mmHg 51%
    14:00 +20°C° 0 mm 5 mps 748 mmHg 49%
    15:00 +20°C° 0 mm 5 mps 748 mmHg 52%
    16:00 +20°C° 0 mm 4 mps 748 mmHg 54%
    17:00 +20°C° 0 mm 4 mps 748 mmHg 57%
    18:00 +19°C° 0 mm 3 mps 748 mmHg 61%
    19:00 +17°C° 0 mm 3 mps 748 mmHg 66%
    20:00 +16°C° 0 mm 3 mps 748 mmHg 70%
    21:00 +16°C° 0 mm 3 mps 748 mmHg 71%
    22:00 +14°C° 0 mm 3 mps 748 mmHg 71%
    23:00 +14°C° 0 mm 4 mps 748 mmHg 72%

    26 April, Thursday

    Time Temperature Precipitation Wind Pressure Humidity
    00:00 +14°C° 0 mm 4 mps 748 mmHg 71%
    01:00 +14°C° 0 mm 4 mps 747 mmHg 70%
    02:00 +14°C° 0 mm 4 mps 747 mmHg 69%
    03:00 +13°C° 0 mm 5 mps 747 mmHg 70%
    04:00 +13°C° 0 mm 5 mps 747 mmHg 71%
    05:00 +13°C° 0 mm 5 mps 747 mmHg 72%
    06:00 +14°C° 0.3 mm 6 mps 747 mmHg 71%
    07:00 +16°C° 0.3 mm 6 mps 746 mmHg 69%
    08:00 +17°C° 0.3 mm 7 mps 746 mmHg 68%
    09:00 +20°C° 0.3 mm 7 mps 746 mmHg 65%
    10:00 +21°C° 0.3 mm 7 mps 746 mmHg 62%
    11:00 +23°C° 0.3 mm 7 mps 746 mmHg 58%
    12:00 +23°C° 0.4 mm 8 mps 746 mmHg 58%
    13:00 +23°C° 0.4 mm 8 mps 746 mmHg 57%
    14:00 +23°C° 0.4 mm 8 mps 746 mmHg 57%
    15:00 +22°C° 0.1 mm 7 mps 746 mmHg 58%
    16:00 +21°C° 0.1 mm 6 mps 747 mmHg 59%
    17:00 +20°C° 0.1 mm 5 mps 747 mmHg 60%
    18:00 +19°C° 0 mm 5 mps 748 mmHg 64%
    19:00 +17°C° 0 mm 4 mps 749 mmHg 68%
    20:00 +14°C° 0 mm 3 mps 749 mmHg 71%
    21:00 +14°C° 0 mm 2 mps 750 mmHg 72%
    22:00 +13°C° 0 mm 2 mps 750 mmHg 72%
    23:00 +12°C° 0 mm 2 mps 750 mmHg 72%

    27 April, Friday

    Time Temperature Precipitation Wind Pressure Humidity
    00:00 +12°C° 0 mm 2 mps 751 mmHg 72%
    01:00 +10°C° 0 mm 2 mps 751 mmHg 72%
    02:00 +10°C° 0 mm 2 mps 751 mmHg 72%
    03:00 +10°C° 0 mm 2 mps 751 mmHg 73%
    04:00 +9°C° 0 mm 2 mps 751 mmHg 74%
    05:00 +9°C° 0 mm 2 mps 751 mmHg 75%
    06:00 +11°C° 0 mm 3 mps 751 mmHg 70%
    07:00 +13°C° 0 mm 3 mps 751 mmHg 66%
    08:00 +15°C° 0 mm 4 mps 752 mmHg 61%
    09:00 +17°C° 0 mm 4 mps 751 mmHg 56%
    10:00 +19°C° 0 mm 4 mps 751 mmHg 52%
    11:00 +20°C° 0 mm 4 mps 751 mmHg 47%
    12:00 +21°C° 0 mm 4 mps 750 mmHg 46%
    13:00 +22°C° 0 mm 4 mps 750 mmHg 44%
    14:00 +23°C° 0 mm 5 mps 749 mmHg 43%
    15:00 +23°C° 0.1 mm 4 mps 749 mmHg 48%
    16:00 +22°C° 0.1 mm 3 mps 748 mmHg 53%
    17:00 +23°C° 0.1 mm 2 mps 748 mmHg 58%
    18:00 +21°C° 0.6 mm 3 mps 748 mmHg 62%
    19:00 +19°C° 0.6 mm 3 mps 748 mmHg 67%
    20:00 +18°C° 0.6 mm 3 mps 748 mmHg 71%
    21:00 +17°C° 0.6 mm 3 mps 748 mmHg 76%
    22:00 +17°C° 0.6 mm 3 mps 749 mmHg 80%
    23:00 +16°C° 0.6 mm 3 mps 749 mmHg 85%

    28 April, Saturday

    Time Temperature Precipitation Wind Pressure Humidity
    00:00 +14°C° 0.1 mm 3 mps 749 mmHg 88%
    01:00 +13°C° 0.1 mm 4 mps 749 mmHg 91%
    02:00 +12°C° 0.1 mm 4 mps 750 mmHg 94%
    03:00 +11°C° 0 mm 4 mps 750 mmHg 94%
    04:00 +10°C° 0 mm 4 mps 750 mmHg 93%
    05:00 +10°C° 0 mm 4 mps 751 mmHg 93%
    06:00 +11°C° 0 mm 4 mps 751 mmHg 87%
    07:00 +12°C° 0 mm 4 mps 752 mmHg 81%
    08:00 +14°C° 0 mm 4 mps 752 mmHg 75%
    09:00 +15°C° 0 mm 4 mps 752 mmHg 66%
    10:00 +17°C° 0 mm 4 mps 752 mmHg 57%
    11:00 +19°C° 0 mm 3 mps 753 mmHg 48%
    12:00 +19°C° 0 mm 3 mps 752 mmHg 45%
    13:00 +20°C° 0 mm 3 mps 752 mmHg 42%
    14:00 +20°C° 0 mm 3 mps 752 mmHg 39%
    15:00 +20°C° 0 mm 3 mps 752 mmHg 41%
    16:00 +20°C° 0 mm 3 mps 752 mmHg 43%
    17:00 +19°C° 0 mm 3 mps 752 mmHg 45%
    18:00 +17°C° 0 mm 3 mps 752 mmHg 49%
    19:00 +16°C° 0 mm 3 mps 753 mmHg 54%
    20:00 +13°C° 0 mm 3 mps 753 mmHg 59%
    21:00 +12°C° 0 mm 3 mps 753 mmHg 61%
    22:00 +11°C° 0 mm 3 mps 753 mmHg 62%
    23:00 +11°C° 0 mm 3 mps 754 mmHg 64%
    Show more